Change the Weather History Date:

Thursday, September 26, 2013

  Actual Average Record
Temperature  
Mean Temperature 79 °F 77 °F  
Max Temperature 90 °F 88 °F 101 °F (2005)
Min Temperature 67 °F 66 °F 48 °F (2000)
Degree Days  
Heating Degree Days 0 0  
Month to date heating degree days 0 0  
Since 1 July heating degree days 0 0  
Cooling Degree Days 14 12  
Month to date cooling degree days 470 399  
Year to date cooling degree days 2964 2752  
Growing Degree Days 28 (Base 50)    
Moisture  
Dew Point 71 °F    
Average Humidity 80    
Maximum Humidity 100    
Minimum Humidity 59    
Precipitation  
Precipitation 0.00 in 0.12 in 1.80 in (1972)
Month to date precipitation 4.90 3.65  
Year to date precipitation 19.82 30.52  
Snow  
Snow 0.00 in - - ()
Month to date snowfall 0.0  
Since 1 July snowfall 0.0  
Since 1 September snowfall 0.0  
Snow Depth 0.00 in    
Sea Level Pressure  
Sea Level Pressure 29.85 in    
Wind  
Wind Speed 7 mph (SE)    
Max Wind Speed 18 mph    
Max Gust Speed 23 mph    
Visibility 7 miles    
Events Fog    
T = Trace of Precipitation, MM = Missing Value Source: NWS Daily Summary

Daily Weather History Graph

Daily Weather History Graph

Search for Another Location

Airport or City:

Trip Planner

Search our weather history database for the weather conditions in past years. The results will help you decide how hot, cold, wet, or windy it might be!

Date:

Astronomy

Sep. 26, 2013 Rise Set
Actual Time 7:18 AM CDT 7:19 PM CDT
Civil Twilight 6:54 AM CDT 7:42 PM CDT
Nautical Twilight 6:27 AM CDT 8:10 PM CDT
Astronomical Twilight 5:59 AM CDT 8:37 PM CDT
Moon No Moon Rise 1:47 PM CDT (9/26)
Length of Visible Light 12h 47m
Length of Day
12h 00m
Waning Gibbous, 54% of the Moon is Illuminated
Sep 26
Waning Gibbous
Sep 26
Last Quarter
Oct 4
New
Oct 11
First Quarter
Oct 18
Full

Hourly Weather History & Observations

Time (CDT) Temp. Heat Index Dew Point Humidity Pressure Visibility Wind Dir Wind Speed Gust Speed Precip Events Conditions
12:51 AM 73.0 °F - 68.0 °F 84% 29.83 in 9.0 mi South 3.5 mph - N/A   Clear
1:51 AM 71.1 °F - 68.0 °F 90% 29.83 in 9.0 mi South 4.6 mph - N/A   Clear
2:51 AM 71.1 °F - 68.0 °F 90% 29.83 in 8.0 mi Calm Calm - N/A   Clear
3:51 AM 71.1 °F - 69.1 °F 93% 29.82 in 6.0 mi South 3.5 mph - N/A   Clear
4:51 AM 70.0 °F - 68.0 °F 93% 29.82 in 4.0 mi SSE 3.5 mph - N/A   Clear
5:37 AM 68.0 °F - 66.2 °F 94% 29.83 in 2.0 mi Calm Calm - N/A   Clear
5:51 AM 68.0 °F - 66.9 °F 96% 29.83 in 1.5 mi Calm Calm - N/A   Clear
6:04 AM 68.0 °F - 66.2 °F 94% 29.84 in 2.0 mi Calm Calm - N/A   Clear
6:14 AM 68.0 °F - 66.2 °F 94% 29.84 in 1.8 mi Calm Calm - N/A   Clear
6:46 AM 68.0 °F - 66.2 °F 94% 29.85 in 1.2 mi South 3.5 mph - N/A   Clear
6:51 AM 68.0 °F - 66.9 °F 96% 29.85 in 1.8 mi ESE 3.5 mph - N/A   Clear
6:53 AM 68.0 °F - 66.2 °F 94% 29.85 in 4.0 mi Calm Calm - N/A   Clear
7:17 AM 68.0 °F - 66.2 °F 94% 29.86 in 4.0 mi Calm Calm - N/A   Partly Cloudy
7:43 AM 68.0 °F - 68.0 °F 100% 29.86 in 0.2 mi East 4.6 mph - N/A Fog Fog
7:51 AM 69.1 °F - 68.0 °F 96% 29.86 in 3.0 mi ENE 4.6 mph - N/A   Clear
8:51 AM 73.9 °F - 73.0 °F 97% 29.88 in 3.0 mi Calm Calm - N/A   Clear
9:51 AM 82.0 °F 89.4 °F 75.9 °F 82% 29.89 in 8.0 mi ESE 4.6 mph - N/A   Clear
10:51 AM 84.0 °F 91.2 °F 73.9 °F 72% 29.89 in 10.0 mi SE 6.9 mph - N/A   Partly Cloudy
11:51 AM 87.1 °F 94.5 °F 73.0 °F 63% 29.89 in 10.0 mi SE 4.6 mph - N/A   Partly Cloudy
12:02 PM 87.8 °F 95.6 °F 73.4 °F 62% 29.89 in 10.0 mi ESE 6.9 mph - N/A   Scattered Clouds
12:51 PM 89.1 °F 98.0 °F 73.9 °F 61% 29.87 in 10.0 mi ESE 8.1 mph - N/A   Scattered Clouds
1:51 PM 87.1 °F 94.5 °F 73.0 °F 63% 29.86 in 10.0 mi SE 8.1 mph - N/A   Mostly Cloudy
2:51 PM 90.0 °F 99.0 °F 73.9 °F 59% 29.83 in 10.0 mi SE 12.7 mph - N/A   Mostly Cloudy
3:51 PM 87.1 °F 95.4 °F 73.9 °F 65% 29.83 in 10.0 mi SE 12.7 mph 20.7 mph N/A   Partly Cloudy
4:51 PM 89.1 °F 99.1 °F 75.0 °F 63% 29.82 in 10.0 mi SE 12.7 mph 20.7 mph N/A   Clear
5:51 PM 87.1 °F 95.4 °F 73.9 °F 65% 29.82 in 10.0 mi SE 18.4 mph 23.0 mph N/A   Clear
6:51 PM 84.0 °F 91.9 °F 75.0 °F 74% 29.83 in 10.0 mi SE 16.1 mph - N/A   Clear
7:51 PM 82.0 °F 89.4 °F 75.9 °F 82% 29.83 in 9.0 mi ESE 10.4 mph - N/A   Scattered Clouds
8:01 PM 82.4 °F 89.5 °F 75.2 °F 79% 29.84 in 10.0 mi SE 10.4 mph - N/A   Mostly Cloudy
8:08 PM 82.4 °F 89.5 °F 75.2 °F 79% 29.84 in 10.0 mi SE 11.5 mph - N/A   Scattered Clouds
8:51 PM 81.0 °F 87.9 °F 77.0 °F 88% 29.86 in 10.0 mi SE 9.2 mph - N/A   Mostly Cloudy
9:08 PM 80.6 °F 87.1 °F 77.0 °F 89% 29.86 in 10.0 mi SE 8.1 mph - N/A   Scattered Clouds
9:51 PM 79.0 °F - 75.9 °F 90% 29.87 in 10.0 mi SE 6.9 mph - N/A   Partly Cloudy
10:51 PM 77.0 °F - 75.0 °F 94% 29.88 in 9.0 mi SE 5.8 mph - N/A   Partly Cloudy
11:51 PM 77.0 °F - 75.9 °F 96% 29.88 in 8.0 mi SE 6.9 mph - N/A   Clear